When you browse on this site, cookies collect data to enhance your experience and personalize the content and advertising you see.
Visit our Privacy Policy to learn more. By continuing to use the site, you agree to this use of cookies and data.
  • In Deutschland
  • Länderverzeichnis
  • Für 7 Tage
  • Wassertemperatur
  • Wetterkarte
  • Widgets
  • user-avatar
    Anmelden

    Stündliche Wetter Dinagepoor

    Heute, 17 Januar, Freitag

    Zeit Temperatur Niederschläge Wind Luftdruck Luftfeuchtigkeit
    00:00 +22°C° 0 mm 1 m/S 759 mmHg 51%
    01:00 +22°C° 0 mm 1 m/S 759 mmHg 53%
    02:00 +21°C° 0 mm 1 m/S 759 mmHg 56%
    03:00 +21°C° 0 mm 1 m/S 759 mmHg 58%
    04:00 +20°C° 0 mm 1 m/S 759 mmHg 61%
    05:00 +20°C° 0 mm 1 m/S 758 mmHg 63%
    06:00 +20°C° 0 mm 1 m/S 758 mmHg 66%
    07:00 +21°C° 0 mm 1 m/S 759 mmHg 62%
    08:00 +21°C° 0 mm 2 m/S 760 mmHg 59%
    09:00 +23°C° 0 mm 2 m/S 760 mmHg 55%
    10:00 +25°C° 0 mm 2 m/S 760 mmHg 51%
    11:00 +26°C° 0 mm 2 m/S 760 mmHg 46%
    12:00 +28°C° 0 mm 2 m/S 760 mmHg 42%
    13:00 +28°C° 0 mm 2 m/S 760 mmHg 40%
    14:00 +29°C° 0 mm 1 m/S 759 mmHg 38%
    15:00 +30°C° 0 mm 1 m/S 758 mmHg 37%
    16:00 +28°C° 0 mm 1 m/S 758 mmHg 39%
    17:00 +27°C° 0 mm 1 m/S 758 mmHg 42%
    18:00 +26°C° 0 mm 1 m/S 757 mmHg 45%
    19:00 +25°C° 0 mm 1 m/S 758 mmHg 48%
    20:00 +25°C° 0 mm 2 m/S 758 mmHg 52%
    21:00 +24°C° 0 mm 3 m/S 759 mmHg 55%
    22:00 +23°C° 0 mm 2 m/S 759 mmHg 59%
    23:00 +21°C° 0 mm 2 m/S 759 mmHg 63%

    Morgen, 18 Januar, Samstag

    Zeit Temperatur Niederschläge Wind Luftdruck Luftfeuchtigkeit
    00:00 +20°C° 0 mm 2 m/S 759 mmHg 67%
    01:00 +20°C° 0 mm 2 m/S 758 mmHg 68%
    02:00 +20°C° 0 mm 2 m/S 758 mmHg 70%
    03:00 +19°C° 0 mm 2 m/S 758 mmHg 71%
    04:00 +19°C° 0 mm 2 m/S 758 mmHg 73%
    05:00 +19°C° 0 mm 2 m/S 758 mmHg 76%
    06:00 +18°C° 0 mm 2 m/S 758 mmHg 78%
    07:00 +19°C° 0 mm 2 m/S 758 mmHg 73%
    08:00 +21°C° 0 mm 3 m/S 759 mmHg 68%
    09:00 +22°C° 0 mm 3 m/S 760 mmHg 63%
    10:00 +25°C° 0 mm 2 m/S 760 mmHg 55%
    11:00 +27°C° 0 mm 1 m/S 759 mmHg 48%
    12:00 +29°C° 0 mm 1 m/S 759 mmHg 40%
    13:00 +29°C° 0 mm 1 m/S 758 mmHg 37%
    14:00 +30°C° 0 mm 2 m/S 758 mmHg 34%
    15:00 +30°C° 0 mm 2 m/S 757 mmHg 31%
    16:00 +29°C° 0 mm 2 m/S 757 mmHg 35%
    17:00 +27°C° 0 mm 2 m/S 756 mmHg 40%
    18:00 +26°C° 0 mm 2 m/S 756 mmHg 44%
    19:00 +25°C° 0 mm 2 m/S 757 mmHg 48%
    20:00 +24°C° 0 mm 2 m/S 757 mmHg 51%
    21:00 +24°C° 0 mm 2 m/S 758 mmHg 54%
    22:00 +23°C° 0 mm 2 m/S 758 mmHg 55%
    23:00 +23°C° 0 mm 2 m/S 758 mmHg 56%

    übermorgen, 19 Januar, Sonntag

    Zeit Temperatur Niederschläge Wind Luftdruck Luftfeuchtigkeit
    00:00 +21°C° 0 mm 2 m/S 757 mmHg 58%
    01:00 +21°C° 0 mm 2 m/S 757 mmHg 59%
    02:00 +20°C° 0 mm 2 m/S 757 mmHg 61%
    03:00 +20°C° 0 mm 2 m/S 757 mmHg 63%
    04:00 +20°C° 0 mm 1 m/S 757 mmHg 63%
    05:00 +20°C° 0 mm 1 m/S 757 mmHg 63%
    06:00 +19°C° 0 mm 1 m/S 757 mmHg 64%
    07:00 +20°C° 0 mm 1 m/S 758 mmHg 61%
    08:00 +21°C° 0 mm 1 m/S 758 mmHg 59%
    09:00 +21°C° 0 mm 2 m/S 759 mmHg 56%
    10:00 +24°C° 0 mm 2 m/S 759 mmHg 49%
    11:00 +26°C° 0 mm 3 m/S 759 mmHg 43%
    12:00 +27°C° 0 mm 3 m/S 759 mmHg 36%
    13:00 +25°C° 0.3 mm 3 m/S 758 mmHg 46%
    14:00 +22°C° 0.3 mm 4 m/S 758 mmHg 56%
    15:00 +20°C° 0.3 mm 4 m/S 758 mmHg 65%
    16:00 +20°C° 0 mm 4 m/S 758 mmHg 63%
    17:00 +20°C° 0 mm 3 m/S 757 mmHg 62%
    18:00 +20°C° 0 mm 3 m/S 757 mmHg 60%
    19:00 +20°C° 0 mm 2 m/S 758 mmHg 61%
    20:00 +20°C° 0 mm 2 m/S 758 mmHg 62%
    21:00 +19°C° 0 mm 2 m/S 759 mmHg 63%
    22:00 +19°C° 0 mm 2 m/S 758 mmHg 65%
    23:00 +18°C° 0 mm 2 m/S 758 mmHg 67%

    20 Januar, Montag

    Zeit Temperatur Niederschläge Wind Luftdruck Luftfeuchtigkeit
    00:00 +18°C° 0 mm 2 m/S 758 mmHg 69%
    01:00 +17°C° 0 mm 2 m/S 758 mmHg 71%
    02:00 +17°C° 0 mm 2 m/S 758 mmHg 74%
    03:00 +16°C° 0 mm 2 m/S 758 mmHg 77%
    04:00 +16°C° 0 mm 2 m/S 758 mmHg 79%
    05:00 +16°C° 0 mm 2 m/S 758 mmHg 80%
    06:00 +15°C° 0 mm 2 m/S 758 mmHg 82%
    07:00 +17°C° 0 mm 2 m/S 758 mmHg 76%
    08:00 +18°C° 0 mm 2 m/S 759 mmHg 69%
    09:00 +19°C° 0 mm 2 m/S 760 mmHg 63%
    10:00 +21°C° 0 mm 3 m/S 760 mmHg 56%
    11:00 +22°C° 0 mm 3 m/S 760 mmHg 49%
    12:00 +25°C° 0 mm 3 m/S 760 mmHg 43%
    13:00 +25°C° 0 mm 4 m/S 759 mmHg 39%
    14:00 +26°C° 0 mm 4 m/S 758 mmHg 34%
    15:00 +26°C° 0 mm 5 m/S 757 mmHg 30%
    16:00 +25°C° 0 mm 4 m/S 757 mmHg 32%
    17:00 +22°C° 0 mm 3 m/S 757 mmHg 34%
    18:00 +21°C° 0 mm 3 m/S 757 mmHg 36%
    19:00 +20°C° 0 mm 3 m/S 758 mmHg 39%
    20:00 +20°C° 0 mm 3 m/S 759 mmHg 42%
    21:00 +19°C° 0 mm 3 m/S 759 mmHg 44%
    22:00 +18°C° 0 mm 3 m/S 759 mmHg 46%
    23:00 +18°C° 0 mm 2 m/S 759 mmHg 48%

    21 Januar, Dienstag

    Zeit Temperatur Niederschläge Wind Luftdruck Luftfeuchtigkeit
    00:00 +17°C° 0 mm 2 m/S 759 mmHg 50%
    01:00 +17°C° 0 mm 2 m/S 759 mmHg 51%
    02:00 +16°C° 0 mm 2 m/S 759 mmHg 52%
    03:00 +16°C° 0 mm 2 m/S 759 mmHg 53%
    04:00 +16°C° 0 mm 2 m/S 759 mmHg 54%
    05:00 +15°C° 0 mm 1 m/S 759 mmHg 55%
    06:00 +15°C° 0 mm 1 m/S 759 mmHg 57%
    07:00 +16°C° 0 mm 1 m/S 760 mmHg 54%
    08:00 +18°C° 0 mm 1 m/S 761 mmHg 50%
    09:00 +20°C° 0 mm 1 m/S 762 mmHg 47%
    10:00 +21°C° 0 mm 1 m/S 762 mmHg 44%
    11:00 +23°C° 0 mm 2 m/S 761 mmHg 40%
    12:00 +25°C° 0 mm 2 m/S 761 mmHg 36%
    13:00 +25°C° 0 mm 2 m/S 761 mmHg 32%
    14:00 +26°C° 0 mm 2 m/S 760 mmHg 29%
    15:00 +27°C° 0 mm 3 m/S 759 mmHg 26%
    16:00 +25°C° 0 mm 2 m/S 759 mmHg 29%
    17:00 +24°C° 0 mm 2 m/S 758 mmHg 32%
    18:00 +23°C° 0 mm 2 m/S 758 mmHg 35%
    19:00 +21°C° 0 mm 2 m/S 759 mmHg 37%
    20:00 +20°C° 0 mm 2 m/S 759 mmHg 39%
    21:00 +21°C° 0 mm 1 m/S 760 mmHg 41%
    22:00 +19°C° 0 mm 2 m/S 760 mmHg 42%
    23:00 +19°C° 0 mm 2 m/S 760 mmHg 43%

    22 Januar, Mittwoch

    Zeit Temperatur Niederschläge Wind Luftdruck Luftfeuchtigkeit
    00:00 +18°C° 0 mm 2 m/S 759 mmHg 45%
    01:00 +18°C° 0 mm 2 m/S 759 mmHg 47%
    02:00 +18°C° 0 mm 1 m/S 759 mmHg 50%
    03:00 +18°C° 0 mm 1 m/S 759 mmHg 52%
    04:00 +16°C° 0 mm 1 m/S 759 mmHg 54%
    05:00 +16°C° 0 mm 1 m/S 759 mmHg 56%
    06:00 +15°C° 0 mm 0 m/S 759 mmHg 58%
    07:00 +16°C° 0 mm 0 m/S 760 mmHg 54%
    08:00 +19°C° 0 mm 1 m/S 760 mmHg 50%
    09:00 +21°C° 0 mm 1 m/S 761 mmHg 46%
    10:00 +21°C° 0 mm 0 m/S 760 mmHg 41%
    11:00 +22°C° 0 mm 0 m/S 760 mmHg 37%
    12:00 +24°C° 0 mm 0 m/S 760 mmHg 32%
    13:00 +27°C° 0 mm 1 m/S 759 mmHg 32%
    14:00 +27°C° 0 mm 2 m/S 758 mmHg 31%
    15:00 +28°C° 0 mm 3 m/S 757 mmHg 31%
    16:00 +26°C° 0 mm 3 m/S 757 mmHg 34%
    17:00 +25°C° 0 mm 2 m/S 757 mmHg 37%
    18:00 +24°C° 0 mm 2 m/S 756 mmHg 40%
    19:00 +23°C° 0 mm 2 m/S 757 mmHg 43%
    20:00 +23°C° 0 mm 2 m/S 757 mmHg 45%
    21:00 +21°C° 0 mm 2 m/S 758 mmHg 47%
    22:00 +20°C° 0 mm 2 m/S 758 mmHg 48%
    23:00 +19°C° 0 mm 2 m/S 758 mmHg 49%
    Mehr zeigen